map of RUN home
RUN - Airport
Location
City:  St-Denis, Réunion
Near (Alt.):St-Denis de la Réunion
Name:Roland Garros
Old (Alt.):Gillot
ICAO:FMEE
IATA:RUN

Details
Type:Airport (Aerodrome, Airfield)
Latitude:20°53'24"S (-20.889999)
Longitude:55°30'59"E (55.516389)
Elevation:66 ft (20 m)
Variation:19.01°W (WMM2015 magnetic declination)
0.04° annual change
Runways:2
Longest:10499 × 148 ft (3200 × 45 m), paved

Time
Time Zone:UTC+4
Local Time:

Weather
METAR:FMEE 170230Z 11016KT 9999 -SHRA FEW039TCU SCT082 24/21 Q1018 TEMPO SHRA BKN025TCU
TAF:FMEE 162300Z 1700/1806 12012KT 9999 FEW020 SCT050
TEMPO 1700/1703 SHRA SCT020TCU
FM170700 08020KT 9999 FEW030
TEMPO 1715/1803 12010KT

Related Locations
Nearby:
Farthest:MMCD: 11676 mi / 18790 km
Cedros [Isla de Cedros Airport], Isla de Cedros, BCN, MX

Find:

   beyond  
but within

Other Information
Maps:
NOTAMs:
Links:
Sources:

  
flag of Réunion   

Airport Diagram

Airport diagram for RUN

Airport diagram (OBSOLETE) from NGA

Sectional Chart

Flight Planning
at skyvector.com

Satellite Image

Google Maps Satellite view

 

Copyright © 2004-2017 Karl L. Swartz. All rights reserved.
The Great Circle Mapper name and logo are trademarks of the Great Circle Mapper.
All other trademarks mentioned herein belong to their respective owners.
Please see credits for attibutions and further copyright information.

  Follow gcmap on Facebook Follow gcmap on Twitter Follow gcmap on Google+ GCmap on LinkedIn

hCard Microformat

Geo Microformat